TimeCDT,TemperatureF,Dew PointF,Humidity,Sea Level PressureIn,VisibilityMPH,Wind Direction,Wind SpeedMPH,Gust SpeedMPH,PrecipitationIn,Events,Conditions,WindDirDegrees,DateUTC
12:15 AM,55.4,46.4,72,30.07,10.0,SE,4.6,-,N/A,,Clear,140,2011-11-01 05:15:00
12:35 AM,55.4,46.4,72,30.07,10.0,SE,3.5,-,N/A,,Clear,130,2011-11-01 05:35:00
12:55 AM,53.6,44.6,72,30.07,10.0,Calm,Calm,-,N/A,,Clear,0,2011-11-01 05:55:00
1:15 AM,53.6,46.4,77,30.07,10.0,Calm,Calm,-,N/A,,Clear,0,2011-11-01 06:15:00
1:35 AM,53.6,44.6,72,30.07,10.0,Calm,Calm,-,N/A,,Clear,0,2011-11-01 06:35:00
1:55 AM,53.6,44.6,72,30.07,10.0,ESE,3.5,-,N/A,,Clear,110,2011-11-01 06:55:00
2:15 AM,53.6,44.6,72,30.07,10.0,East,3.5,-,N/A,,Clear,100,2011-11-01 07:15:00
2:35 AM,53.6,46.4,77,30.07,10.0,East,3.5,-,N/A,,Clear,90,2011-11-01 07:35:00
2:55 AM,51.8,44.6,76,30.07,10.0,East,4.6,-,N/A,,Clear,90,2011-11-01 07:55:00
3:15 AM,53.6,46.4,77,30.07,10.0,ESE,3.5,-,N/A,,Clear,110,2011-11-01 08:15:00
3:35 AM,55.4,46.4,72,30.07,10.0,ESE,4.6,-,N/A,,Clear,110,2011-11-01 08:35:00
3:55 AM,53.6,44.6,72,30.07,10.0,SE,4.6,-,N/A,,Clear,130,2011-11-01 08:55:00
4:15 AM,55.4,44.6,67,30.07,10.0,ESE,3.5,-,N/A,,Clear,120,2011-11-01 09:15:00
4:35 AM,55.4,44.6,67,30.07,10.0,Calm,Calm,-,N/A,,Clear,0,2011-11-01 09:35:00
4:55 AM,55.4,44.6,67,30.07,10.0,SE,4.6,-,N/A,,Clear,140,2011-11-01 09:55:00
5:15 AM,55.4,44.6,67,30.07,10.0,SE,5.8,-,N/A,,Clear,140,2011-11-01 10:15:00
5:35 AM,55.4,44.6,67,30.07,10.0,SE,4.6,-,N/A,,Clear,140,2011-11-01 10:35:00
5:55 AM,53.6,44.6,72,30.07,10.0,SE,6.9,-,N/A,,Clear,140,2011-11-01 10:55:00
6:15 AM,53.6,44.6,72,30.07,10.0,SE,5.8,-,N/A,,Clear,130,2011-11-01 11:15:00
6:35 AM,53.6,44.6,72,30.07,10.0,SE,5.8,-,N/A,,Clear,140,2011-11-01 11:35:00
6:55 AM,53.6,44.6,72,30.07,10.0,SE,8.1,-,N/A,,Clear,140,2011-11-01 11:55:00
7:55 AM,53.6,46.4,77,30.08,10.0,East,6.9,-,N/A,,Clear,100,2011-11-01 12:55:00
8:55 AM,57.2,48.2,72,30.09,10.0,SE,3.5,-,N/A,,Clear,130,2011-11-01 13:55:00
9:55 AM,62.6,50.0,63,30.10,10.0,South,6.9,-,N/A,,Clear,190,2011-11-01 14:55:00
10:55 AM,66.2,50.0,56,30.10,10.0,South,11.5,-,N/A,,Clear,170,2011-11-01 15:55:00
11:55 AM,69.8,50.0,49,30.08,10.0,South,11.5,24.2,N/A,,Clear,190,2011-11-01 16:55:00
12:55 PM,71.6,51.8,50,30.05,10.0,South,12.7,20.7,N/A,,Clear,180,2011-11-01 17:55:00
1:55 PM,73.4,50.0,44,30.01,10.0,South,13.8,19.6,N/A,,Clear,170,2011-11-01 18:55:00
4:55 PM,73.4,50.0,44,29.97,10.0,SSE,16.1,21.9,N/A,,Clear,150,2011-11-01 21:55:00
7:55 PM,64.4,48.2,56,29.97,10.0,SE,6.9,-,N/A,,Clear,130,2011-11-02 00:55:00
10:15 PM,60.8,44.6,55,29.99,10.0,ESE,4.6,-,N/A,,Clear,120,2011-11-02 03:15:00
10:35 PM,59.0,44.6,59,29.98,10.0,ESE,3.5,-,N/A,,Clear,110,2011-11-02 03:35:00
11:15 PM,55.4,44.6,67,29.98,10.0,East,3.5,-,N/A,,Clear,90,2011-11-02 04:15:00
11:35 PM,55.4,44.6,67,29.98,10.0,East,3.5,-,N/A,,Clear,80,2011-11-02 04:35:00
11:55 PM,55.4,44.6,67,29.98,10.0,ESE,3.5,-,N/A,,Clear,120,2011-11-02 04:55:00